When you browse on this site, cookies collect data to enhance your experience and personalize the content and advertising you see.
Visit our Privacy Policy to learn more. By continuing to use the site, you agree to this use of cookies and data.
  • In Portugal
  • List of Countries
  • For 7 days
  • Water Temperature
  • Weather Map
  • Weather Widgets
  • user-avatar
    Login

    Hourly Weather Sioux Falls

    Today, 28 March, Saturday

    Time Temperature Precipitation Wind Pressure Humidity
    00:00 +5°C° 0 mm 7 mps 715 mmHg 90%
    01:00 +5°C° 0.2 mm 6 mps 714 mmHg 90%
    02:00 +4°C° 0.2 mm 6 mps 714 mmHg 90%
    03:00 +5°C° 0.2 mm 5 mps 713 mmHg 91%
    04:00 +4°C° 0.2 mm 6 mps 713 mmHg 90%
    05:00 +4°C° 0.2 mm 7 mps 713 mmHg 89%
    06:00 +4°C° 0 mm 7 mps 713 mmHg 87%
    07:00 +4°C° 0.1 mm 7 mps 713 mmHg 87%
    08:00 +4°C° 0.1 mm 7 mps 713 mmHg 86%
    09:00 +4°C° 0.1 mm 7 mps 713 mmHg 86%
    10:00 +4°C° 0.5 mm 7 mps 712 mmHg 86%
    11:00 +4°C° 0.5 mm 7 mps 712 mmHg 87%
    12:00 +5°C° 0.5 mm 7 mps 711 mmHg 88%
    13:00 +4°C° 2.7 mm 8 mps 710 mmHg 88%
    14:00 +3°C° 2.7 mm 9 mps 709 mmHg 89%
    15:00 +3°C° 2.7 mm 10 mps 708 mmHg 90%
    16:00 +2°C° 3.8 mm 10 mps 709 mmHg 90%
    17:00 +2°C° 3.8 mm 10 mps 709 mmHg 90%
    18:00 +2°C° 3.8 mm 10 mps 709 mmHg 91%
    19:00 +2°C° 0.7 mm 10 mps 710 mmHg 89%
    20:00 +2°C° 0.7 mm 10 mps 710 mmHg 88%
    21:00 +2°C° 0.7 mm 10 mps 711 mmHg 86%
    22:00 +2°C° 0 mm 10 mps 711 mmHg 85%
    23:00 +2°C° 0 mm 10 mps 711 mmHg 84%

    Tomorrow, 29 March, Sunday

    Time Temperature Precipitation Wind Pressure Humidity
    00:00 +2°C° 0 mm 10 mps 712 mmHg 83%
    01:00 +2°C° 0 mm 9 mps 712 mmHg 84%
    02:00 +1°C° 0 mm 9 mps 713 mmHg 84%
    03:00 0°C° 0 mm 8 mps 713 mmHg 85%
    04:00 0°C° 0 mm 8 mps 714 mmHg 85%
    05:00 -1°C° 0 mm 7 mps 715 mmHg 86%
    06:00 -1°C° 0 mm 7 mps 716 mmHg 87%
    07:00 -1°C° 0 mm 7 mps 716 mmHg 85%
    08:00 0°C° 0 mm 7 mps 717 mmHg 83%
    09:00 0°C° 0 mm 7 mps 718 mmHg 80%
    10:00 +3°C° 0 mm 6 mps 718 mmHg 75%
    11:00 +4°C° 0 mm 6 mps 719 mmHg 69%
    12:00 +5°C° 0 mm 6 mps 719 mmHg 63%
    13:00 +7°C° 0 mm 6 mps 720 mmHg 58%
    14:00 +8°C° 0 mm 6 mps 720 mmHg 53%
    15:00 +9°C° 0 mm 6 mps 720 mmHg 48%
    16:00 +8°C° 0 mm 5 mps 721 mmHg 52%
    17:00 +8°C° 0 mm 4 mps 721 mmHg 55%
    18:00 +8°C° 0 mm 3 mps 721 mmHg 59%
    19:00 +7°C° 0 mm 3 mps 722 mmHg 62%
    20:00 +6°C° 0 mm 2 mps 723 mmHg 66%
    21:00 +4°C° 0 mm 2 mps 724 mmHg 70%
    22:00 +3°C° 0 mm 2 mps 724 mmHg 71%
    23:00 +3°C° 0 mm 2 mps 724 mmHg 73%

    Day after tomorrow, 30 March, Monday

    Time Temperature Precipitation Wind Pressure Humidity
    00:00 +2°C° 0 mm 2 mps 724 mmHg 74%
    01:00 +1°C° 0 mm 2 mps 724 mmHg 78%
    02:00 +1°C° 0 mm 2 mps 725 mmHg 81%
    03:00 -1°C° 0 mm 2 mps 725 mmHg 84%
    04:00 -1°C° 0 mm 2 mps 725 mmHg 84%
    05:00 -1°C° 0 mm 2 mps 725 mmHg 84%
    06:00 +1°C° 0 mm 1 mps 726 mmHg 85%
    07:00 +2°C° 0 mm 2 mps 726 mmHg 78%
    08:00 +3°C° 0 mm 2 mps 726 mmHg 71%
    09:00 +4°C° 0 mm 3 mps 726 mmHg 64%
    10:00 +7°C° 0 mm 3 mps 726 mmHg 57%
    11:00 +9°C° 0 mm 3 mps 726 mmHg 51%
    12:00 +10°C° 0 mm 4 mps 726 mmHg 45%
    13:00 +11°C° 0 mm 4 mps 726 mmHg 45%
    14:00 +12°C° 0 mm 4 mps 725 mmHg 46%
    15:00 +12°C° 0 mm 4 mps 725 mmHg 47%
    16:00 +11°C° 0 mm 4 mps 724 mmHg 53%
    17:00 +11°C° 0 mm 3 mps 724 mmHg 58%
    18:00 +10°C° 0 mm 2 mps 724 mmHg 64%
    19:00 +9°C° 0 mm 2 mps 724 mmHg 66%
    20:00 +8°C° 0 mm 2 mps 724 mmHg 69%
    21:00 +7°C° 0 mm 2 mps 724 mmHg 71%
    22:00 +7°C° 0 mm 2 mps 724 mmHg 71%
    23:00 +6°C° 0 mm 2 mps 724 mmHg 72%

    31 March, Tuesday

    Time Temperature Precipitation Wind Pressure Humidity
    00:00 +6°C° 0 mm 2 mps 724 mmHg 72%
    01:00 +6°C° 0 mm 2 mps 724 mmHg 73%
    02:00 +5°C° 0 mm 2 mps 724 mmHg 74%
    03:00 +5°C° 0 mm 2 mps 724 mmHg 74%
    04:00 +5°C° 0.1 mm 2 mps 724 mmHg 76%
    05:00 +5°C° 0.1 mm 2 mps 724 mmHg 78%
    06:00 +4°C° 0.1 mm 2 mps 723 mmHg 80%
    07:00 +4°C° 0 mm 3 mps 723 mmHg 77%
    08:00 +5°C° 0 mm 3 mps 723 mmHg 73%
    09:00 +6°C° 0 mm 4 mps 723 mmHg 69%
    10:00 +8°C° 0 mm 4 mps 722 mmHg 66%
    11:00 +10°C° 0 mm 4 mps 722 mmHg 63%
    12:00 +10°C° 0 mm 5 mps 722 mmHg 60%
    13:00 +12°C° 0 mm 5 mps 721 mmHg 58%
    14:00 +12°C° 0 mm 5 mps 720 mmHg 57%
    15:00 +13°C° 0 mm 6 mps 720 mmHg 56%
    16:00 +12°C° 0 mm 5 mps 719 mmHg 58%
    17:00 +12°C° 0 mm 5 mps 718 mmHg 61%
    18:00 +10°C° 0 mm 5 mps 718 mmHg 64%
    19:00 +10°C° 0.1 mm 5 mps 718 mmHg 66%
    20:00 +9°C° 0.1 mm 6 mps 717 mmHg 68%
    21:00 +9°C° 0.1 mm 6 mps 717 mmHg 70%
    22:00 +9°C° 0.6 mm 6 mps 717 mmHg 74%
    23:00 +9°C° 0.6 mm 7 mps 717 mmHg 77%

    1 April, Wednesday

    Time Temperature Precipitation Wind Pressure Humidity
    00:00 +8°C° 0.6 mm 7 mps 717 mmHg 81%
    01:00 +8°C° 0.1 mm 7 mps 717 mmHg 83%
    02:00 +8°C° 0.1 mm 6 mps 717 mmHg 85%
    03:00 +8°C° 0.1 mm 5 mps 716 mmHg 87%
    04:00 +7°C° 0 mm 4 mps 717 mmHg 88%
    05:00 +6°C° 0 mm 4 mps 717 mmHg 88%
    06:00 +5°C° 0 mm 3 mps 718 mmHg 89%
    07:00 +5°C° 0 mm 3 mps 718 mmHg 84%
    08:00 +5°C° 0 mm 4 mps 718 mmHg 79%
    09:00 +6°C° 0 mm 5 mps 719 mmHg 73%
    10:00 +7°C° 0 mm 5 mps 719 mmHg 65%
    11:00 +8°C° 0 mm 5 mps 720 mmHg 56%
    12:00 +10°C° 0 mm 4 mps 720 mmHg 48%
    13:00 +11°C° 0 mm 4 mps 720 mmHg 44%
    14:00 +11°C° 0 mm 4 mps 720 mmHg 41%
    15:00 +12°C° 0 mm 4 mps 720 mmHg 37%
    16:00 +11°C° 0 mm 3 mps 720 mmHg 41%
    17:00 +10°C° 0 mm 3 mps 720 mmHg 44%
    18:00 +10°C° 0 mm 3 mps 720 mmHg 47%
    19:00 +8°C° 0 mm 3 mps 720 mmHg 51%
    20:00 +7°C° 0 mm 3 mps 720 mmHg 55%
    21:00 +5°C° 0 mm 3 mps 721 mmHg 59%
    22:00 +4°C° 0 mm 4 mps 721 mmHg 60%
    23:00 +3°C° 0 mm 4 mps 721 mmHg 62%

    2 April, Thursday

    Time Temperature Precipitation Wind Pressure Humidity
    00:00 +3°C° 0 mm 4 mps 721 mmHg 63%
    01:00 +3°C° 0 mm 4 mps 721 mmHg 65%
    02:00 +1°C° 0 mm 4 mps 720 mmHg 68%
    03:00 +1°C° 0 mm 5 mps 720 mmHg 70%
    04:00 +1°C° 0 mm 5 mps 721 mmHg 74%
    05:00 +1°C° 0 mm 4 mps 721 mmHg 78%
    06:00 0°C° 0 mm 4 mps 721 mmHg 81%
    07:00 +1°C° 0 mm 4 mps 721 mmHg 76%
    08:00 +1°C° 0 mm 4 mps 721 mmHg 70%
    09:00 +1°C° 0 mm 5 mps 721 mmHg 64%
    10:00 +3°C° 0 mm 5 mps 721 mmHg 61%
    11:00 +5°C° 0 mm 5 mps 721 mmHg 58%
    12:00 +7°C° 0 mm 5 mps 722 mmHg 54%
    13:00 +7°C° 0 mm 5 mps 722 mmHg 52%
    14:00 +8°C° 0 mm 4 mps 721 mmHg 49%
    15:00 +8°C° 0 mm 4 mps 721 mmHg 47%
    16:00 +8°C° 0 mm 4 mps 721 mmHg 49%
    17:00 +7°C° 0 mm 4 mps 722 mmHg 51%
    18:00 +6°C° 0 mm 4 mps 722 mmHg 54%
    19:00 +6°C° 0 mm 4 mps 722 mmHg 57%
    20:00 +5°C° 0 mm 4 mps 723 mmHg 59%
    21:00 +4°C° 0 mm 4 mps 724 mmHg 62%
    22:00 +3°C° 0 mm 4 mps 724 mmHg 64%
    23:00 +1°C° 0 mm 5 mps 725 mmHg 65%
    Show more